[[{"header":{"parameterUnit":"m.s-1","parameterCategory":1,"la1":30.2991,"la2":30.254,"lo1":-89.0895,"lo2":-89.0444,"dy":0.0017,"dx":0.0017,"nx":28,"ny":28,"refTime":"2024-04-15T09:00:00:Z","depth":0,"parameterNumber":2,"parameterNumberName":"U-component_of_WINDS"},"data":[0,0,0,0,0,0,0,0,0,0,0,0,0,0,0,0,0,0,0,0,0,0,0,0,0,0,0,0,0,0,0,0,0,0,0,0,0,0,0,0,0,0,0,0,0,0,0,0,0,0,0,0,0,0,0,0,0,0,0.5798,0.5799,0,0.5893,0.5894,0.5895,0.592,0.592,0.5919,0.5919,0.6016,0.6019,0.6022,0,0,0,0,0,0,0,0,0,0,0,0,0,0.5641,0.5644,0.5798,0.58,0.5801,0.5892,0.5894,0.5895,0.5921,0.592,0.5919,0.5919,0.6015,0.6019,0.6022,0,0,0,0,0,0,0,0,0,0,0,0,0,0.572,0.5645,0.5798,0.5825,0.5828,0.5892,0.5894,0.5895,0.5921,0.592,0.5919,0.5918,0.6014,0.6018,0.6023,0.6068,0,0,0.6037,0.6039,0,0,0,0,0,0,0,0,0.5715,0.5725,0.5819,0.5823,0.5827,0.5894,0.5874,0.5953,0.5921,0.5885,0.5919,0.5918,0.5976,0.5984,0.6003,0.6073,0.6077,0.6038,0.604,0.6042,0.6044,0,0,0,0,0,0,0,0.571,0.5722,0.5836,0.5821,0.5825,0.5832,0.5842,0.5889,0.5934,0.5888,0.5891,0.5901,0.5978,0.5999,0.6006,0.6078,0.6037,0.6042,0.6044,0.6046,0.6189,0.619,0,0,0,0,0,0,0.57,0.5717,0.5833,0.5839,0.5768,0.5835,0.5847,0.5873,0.5934,0.5942,0.5902,0.5902,0.5991,0.6,0.6009,0.6066,0.6042,0.6047,0.6049,0.6188,0.6189,0.619,0,0,0,0,0,0,0.5696,0.571,0.5829,0.5778,0.5794,0.5839,0.5868,0.5875,0.5896,0.5944,0.5952,0.5915,0.5991,0.6003,0.6053,0.6069,0.6049,0.6053,0.6187,0.6188,0.619,0.6179,0,0,0,0,0,0,0.5692,0.5708,0.5726,0.5778,0.5797,0.5871,0.5869,0.5878,0.5904,0.5905,0.5958,0.5966,0.5991,0.6046,0.6058,0.6075,0.6057,0.6185,0.6187,0.6189,0.6178,0.618,0.6181,0,0,0,0,0,0.5686,0.5719,0.5727,0.574,0.5819,0.5872,0.5882,0.591,0.5905,0.5923,0.5954,0.5965,0.6066,0.6051,0.6064,0.6084,0.6185,0.6187,0.6189,0.6177,0.6179,0.6181,0,0,0,0,0,0,0.5668,0.5727,0.5735,0.5787,0.5824,0.5876,0.5899,0.5911,0.5951,0.595,0.5983,0.5995,0.6043,0.6069,0.6051,0.613,0.6125,0.613,0.6112,0.6114,0.6116,0.6108,0.6061,0,0,0,0,0,0.567,0.5707,0.5757,0.5797,0.5816,0.5854,0.5878,0.5896,0.5936,0.5952,0.5986,0.6025,0.6065,0.6091,0.6131,0.6182,0.6194,0.6202,0.6203,0.6205,0.6208,0.6236,0.624,0.6198,0.6198,0.6197,0,0,0.5674,0.5711,0.5733,0.5795,0.5826,0.5864,0.5867,0.5908,0.5936,0.5958,0.6008,0.6034,0.6079,0.613,0.6154,0.6153,0.6223,0.6207,0.6208,0.6211,0.6239,0.6243,0.6247,0.6199,0.6199,0.6199,0,0,0.5701,0.5733,0.577,0.5801,0.5848,0.5873,0.5882,0.5932,0.5951,0.6001,0.6018,0.6053,0.6122,0.6153,0.6178,0.6217,0.6228,0.6229,0.6238,0.6265,0.6268,0.6271,0.6284,0.6289,0.6233,0.6233,0.6233,0,0.5701,0.5759,0.5788,0.5827,0.5854,0.5875,0.5913,0.5942,0.5999,0.6017,0.6015,0.6102,0.6134,0.6191,0.6201,0.622,0.6231,0.6223,0.6265,0.6269,0.6272,0.6285,0.629,0.6233,0.6233,0.6233,0.6233,0,0.5756,0.5796,0.582,0.5874,0.5904,0.5942,0.5977,0.6003,0.6019,0.6044,0.6095,0.6134,0.6182,0.6197,0.6213,0.6257,0.6255,0.6259,0.6254,0.6275,0.6288,0.6293,0.6232,0.6232,0.6232,0.6232,0,0,0.5774,0.5844,0.5852,0.5877,0.593,0.5961,0.6,0.6047,0.6068,0.6107,0.6141,0.6199,0.6202,0.6231,0.625,0.6274,0.6302,0.6275,0.6277,0.6278,0.6352,0.6348,0.6353,0.631,0.6311,0.6312,0.6348,0,0.5807,0.5877,0.5905,0.5962,0.5999,0.602,0.6054,0.609,0.6115,0.615,0.6179,0.6219,0.6221,0.6238,0.6263,0.6293,0.6317,0.6291,0.6341,0.6342,0.6328,0.636,0.6356,0.6389,0.6353,0.6354,0.6355,0,0.5855,0.5894,0.5955,0.6003,0.6019,0.6049,0.6094,0.6127,0.6169,0.6186,0.6217,0.6235,0.6277,0.627,0.6328,0.631,0.6332,0.6351,0.6353,0.6358,0.6349,0.6365,0.64,0.6404,0.6363,0.6362,0.6362,0,0.5861,0.5929,0.5974,0.5994,0.6052,0.6072,0.6097,0.6138,0.6164,0.6203,0.622,0.6264,0.6288,0.6322,0.6351,0.6344,0.6406,0.6402,0.6421,0.642,0.6433,0.6431,0.647,0.6448,0.6448,0.6448,0.6448,0,0.5895,0.5931,0.5977,0.6005,0.6046,0.6077,0.6117,0.6143,0.6179,0.6212,0.6234,0.6264,0.6302,0.6338,0.6361,0.6405,0.6416,0.6431,0.6436,0.6428,0.6426,0.6443,0.6441,0.6449,0.6449,0.6449,0.6449,0,0.5909,0.5941,0.5991,0.6041,0.6054,0.6082,0.6125,0.6153,0.6179,0.6221,0.6232,0.6273,0.6316,0.6349,0.6405,0.6421,0.6468,0.6474,0.6453,0.6456,0.6473,0.647,0.6523,0.6531,0.6504,0.6504,0.6504,0,0.5928,0.5956,0.6009,0.6032,0.6057,0.6094,0.6121,0.6153,0.618,0.6229,0.625,0.6295,0.6332,0.64,0.6435,0.6477,0.6485,0.65,0.6491,0.6482,0.6484,0.6482,0.6484,0.6501,0.6501,0.6501,0.6501,0,0.5958,0.5972,0.6009,0.6052,0.6083,0.6118,0.6154,0.6172,0.6211,0.624,0.6284,0.6312,0.6369,0.6413,0.6459,0.6486,0.65,0.6504,0.651,0.6502,0.6488,0.6495,0.6455,0.6502,0.6502,0.6502,0.6502,0.6502,0.5974,0.6,0.6041,0.6081,0.6112,0.6145,0.6173,0.6202,0.6239,0.6287,0.6304,0.6349,0.639,0.6454,0.648,0.6516,0.6517,0.6526,0.6529,0.653,0.6529,0.6483,0.6525,0.6525,0.6525,0.6525,0.6525,0,0.6004,0.6032,0.6069,0.6118,0.615,0.616,0.6201,0.6227,0.6266,0.6303,0.6339,0.6389,0.6431,0.647,0.6514,0.6535,0.6543,0.6546,0.6544,0.655,0.6527,0.6516,0.6539,0.6539,0.6539,0.6539,0.6539,0.6539,0.6024,0.6068,0.6087,0.6146,0.6174,0.6217,0.6239,0.627,0.6299,0.6354,0.6389,0.6414,0.6451,0.6498,0.6538,0.6548,0.6563,0.6564,0.6576,0.6553,0.6551,0.655,0.654,0.6567,0.6567,0.6596,0.6596,0.6597]},{"header":{"parameterUnit":"m.s-1","parameterCategory":1,"la1":30.2991,"la2":30.254,"lo1":-89.0895,"lo2":-89.0444,"dy":0.0017,"dx":0.0017,"nx":28,"ny":28,"refTime":"2024-04-15T09:00:00:Z","depth":0,"parameterNumber":3,"parameterNumberName":"V-component_of_WINDS"},"data":[0,0,0,0,0,0,0,0,0,0,0,0,0,0,0,0,0,0,0,0,0,0,0,0,0,0,0,0,0,0,0,0,0,0,0,0,0,0,0,0,0,0,0,0,0,0,0,0,0,0,0,0,0,0,0,0,0,0,2.9703,2.9703,0,2.9764,2.9764,2.9765,2.9715,2.9713,2.9711,2.9709,2.9768,2.9771,2.9775,0,0,0,0,0,0,0,0,0,0,0,0,0,2.9539,2.9543,2.9703,2.9703,2.9704,2.9764,2.9764,2.9765,2.9716,2.9713,2.9711,2.9708,2.9767,2.9771,2.9775,0,0,0,0,0,0,0,0,0,0,0,0,0,2.9606,2.9544,2.9703,2.9687,2.9686,2.9763,2.9764,2.9765,2.9716,2.9713,2.971,2.9707,2.9765,2.977,2.9776,2.9871,0,0,2.9792,2.9794,0,0,0,0,0,0,0,0,2.9602,2.9612,2.9688,2.9688,2.9687,2.9729,2.9728,2.9801,2.9717,2.9705,2.9709,2.9706,2.9757,2.9763,2.9781,2.9873,2.9876,2.9792,2.9795,2.9798,2.9799,0,0,0,0,0,0,0,2.9598,2.9609,2.9727,2.9689,2.9689,2.9675,2.9681,2.9742,2.9748,2.9706,2.9702,2.971,2.9756,2.9776,2.9782,2.9877,2.9792,2.9797,2.98,2.9802,3.005,3.0053,0,0,0,0,0,0,2.9595,2.9606,2.9725,2.9728,2.9636,2.9681,2.9688,2.9719,2.9747,2.9748,2.9713,2.9708,2.9769,2.9776,2.9784,2.9897,2.9798,2.9803,2.9806,3.0046,3.005,3.0054,0,0,0,0,0,0,2.9592,2.9607,2.9722,2.9666,2.968,2.9687,2.9722,2.9721,2.9741,2.9752,2.9753,2.9732,2.9767,2.9777,2.985,2.9898,2.9805,2.981,3.0042,3.0047,3.0052,3.0123,0,0,0,0,0,0,2.9588,2.9606,2.9643,2.9668,2.9683,2.9788,2.9725,2.9725,2.9751,2.9745,2.9771,2.9772,2.9765,2.9842,2.9855,2.9904,2.9814,3.0038,3.0044,3.005,3.0117,3.013,3.0142,0,0,0,0,0,2.9582,2.966,2.9645,2.9659,2.973,2.9791,2.98,2.9791,2.9755,2.9792,2.9799,2.9771,2.9891,2.985,2.9864,2.9915,3.0035,3.0043,3.005,3.0111,3.0128,3.0142,0,0,0,0,0,0,2.9639,2.9662,2.9646,2.9735,2.9762,2.9783,2.9829,2.9809,2.9846,2.9838,2.9825,2.9831,2.9908,2.9919,2.9873,3.0008,2.9957,2.9968,2.9998,3.0014,3.0027,3.0022,2.9818,0,0,0,0,0,2.9662,2.9711,2.9728,2.9804,2.9819,2.9822,2.9848,2.9839,2.9866,2.9876,2.9889,2.9915,2.9958,2.9987,3.0027,3.0118,3.0123,3.016,3.0173,3.0183,3.0192,3.0241,3.0257,3.0079,3.0079,3.0079,0,0,2.9709,2.9728,2.976,2.9816,2.9836,2.9886,2.9831,2.9886,2.9923,2.9884,2.9954,2.9964,2.9992,3.0075,3.0112,3.0086,3.0243,3.0193,3.0201,3.0205,3.025,3.0267,3.0282,3.0084,3.0084,3.0083,0,0,2.9821,2.9841,2.9907,2.9928,2.9959,2.996,2.9976,3.0001,3.0006,3.0077,3.0049,3.0091,3.0166,3.0187,3.0208,3.0329,3.0304,3.0342,3.0408,3.0455,3.0469,3.0481,3.0524,3.0539,3.0351,3.0352,3.0352,0,2.9876,2.9952,2.9942,3.0,3.0025,2.9994,3.0059,3.008,3.0122,3.014,3.0111,3.0205,3.0221,3.0308,3.0337,3.0355,3.0372,3.0339,3.0468,3.048,3.0492,3.0532,3.0548,3.0356,3.0355,3.0355,3.0354,0,3.0017,3.007,3.0119,3.0162,3.0192,3.0254,3.0253,3.0284,3.0273,3.0277,3.0349,3.0368,3.0412,3.0432,3.042,3.0517,3.05,3.047,3.0418,3.0513,3.0551,3.0566,3.0362,3.0361,3.0359,3.0358,0,0,3.0166,3.0204,3.0222,3.0241,3.0273,3.0313,3.0372,3.0416,3.0444,3.0474,3.0523,3.0587,3.056,3.0583,3.0574,3.0616,3.071,3.058,3.0581,3.0603,3.0816,3.0839,3.0857,3.0694,3.0697,3.0699,3.0814,0,3.0279,3.0384,3.0378,3.0476,3.0524,3.0495,3.0546,3.0571,3.0576,3.0617,3.0622,3.0668,3.0629,3.0643,3.0683,3.069,3.0752,3.0681,3.0738,3.074,3.0732,3.0876,3.09,3.1007,3.0829,3.0831,3.0833,0,3.0425,3.0462,3.0565,3.059,3.061,3.0657,3.0696,3.0736,3.0763,3.0764,3.0791,3.0775,3.0833,3.0781,3.0861,3.0813,3.0836,3.0843,3.0847,3.0851,3.0792,3.0884,3.1041,3.1057,3.0856,3.0854,3.0853,0,3.0523,3.0598,3.067,3.0687,3.0718,3.0751,3.0765,3.0789,3.0816,3.0851,3.0868,3.0908,3.093,3.0962,3.0957,3.0919,3.1038,3.0985,3.104,3.104,3.1066,3.1064,3.1228,3.1082,3.1081,3.1081,3.1081,0,3.065,3.0714,3.0714,3.0758,3.0828,3.082,3.089,3.09,3.0922,3.0966,3.0943,3.0985,3.0976,3.1018,3.1014,3.1081,3.1091,3.1093,3.1091,3.1094,3.1094,3.1109,3.1101,3.1085,3.1084,3.1083,3.1083,0,3.0771,3.0774,3.0849,3.0873,3.088,3.0931,3.0951,3.0992,3.0995,3.1052,3.1065,3.107,3.1118,3.1116,3.117,3.1168,3.125,3.1239,3.1241,3.1239,3.1293,3.1288,3.1472,3.1495,3.1334,3.1336,3.1337,0,3.0851,3.09,3.0929,3.0958,3.0975,3.1021,3.1049,3.1042,3.1072,3.1106,3.1143,3.1189,3.1225,3.1303,3.1311,3.1352,3.1342,3.1404,3.1348,3.135,3.1342,3.1339,3.1344,3.1414,3.1416,3.1417,3.1419,0,3.0994,3.0993,3.1034,3.1076,3.111,3.1143,3.1173,3.1197,3.1193,3.1228,3.1277,3.1305,3.1361,3.1406,3.1446,3.1459,3.1438,3.1436,3.1451,3.1455,3.1454,3.1455,3.127,3.1432,3.1431,3.143,3.1429,3.1428,3.1096,3.1138,3.1166,3.1212,3.1234,3.1263,3.1303,3.1312,3.1353,3.1399,3.1392,3.1447,3.1472,3.1523,3.154,3.1582,3.156,3.1581,3.1587,3.1592,3.1598,3.1448,3.1589,3.1589,3.1588,3.1588,3.1588,0,3.1237,3.1253,3.1297,3.134,3.1376,3.1355,3.1387,3.1419,3.1468,3.1494,3.153,3.1586,3.1631,3.1643,3.1685,3.1716,3.1708,3.1728,3.1725,3.1728,3.1615,3.1598,3.1734,3.1734,3.1734,3.1734,3.1734,3.1734,3.1314,3.1384,3.1387,3.1467,3.1482,3.1537,3.1556,3.1582,3.1603,3.1667,3.1704,3.1712,3.1733,3.1776,3.1816,3.1818,3.1834,3.1858,3.1856,3.1751,3.1736,3.1722,3.1706,3.1862,3.1862,3.1965,3.1966,3.1967]}]]